456  
ASUS44 KLUB 180210  
RWRLUB  
WEST TEXAS WEATHER ROUNDUP  
NATIONAL WEATHER SERVICE LUBBOCK TX  
900 PM CDT WED AUG 17 2022  
 
NOTE: "FAIR" INDICATES FEW OR NO CLOUDS BELOW 12,000 FEET WITH NO  
SIGNIFICANT WEATHER AND/OR S TO VISIBILITY
.  
 
TXZ004-006>008-010-012-014-016-OKZ002-180300-  
TEXAS PANHANDLE/OKLAHOMA PANHANDLE  
 
CITY SKY/WX TMP DP RH WIND PRES REMARKS
 
AMARILLO CLOUDY 72 61 68 NE12 30.16R  
BORGER CLOUDY 74 62 66 N8 30.17R  
CANADIAN PTCLDY 72 63 72 E3 30.11F  
DALHART MOCLDY 69 64 84 E8 30.22R  
DUMAS CLOUDY 69 62 78 N6 30.20R  
GUYMON CLEAR 72 62 71 CALM 30.14S  
HEREFORD N/A 79 60 52 NE9 30.17R  
PAMPA CLOUDY 71 64 79 NE3 30.17R  
PERRYTON CLEAR 71 61 70 E3 30.13S  

 
 
TXZ026-029-035-045-048-180300-  
SOUTHERN PANHANDLE/SOUTH PLAINS/ROLLING PLAINS  
 
CITY SKY/WX TMP DP RH WIND PRES REMARKS
 
CHILDRESS PTCLDY 81 62 52 NE14G22 30.06R  
SEMINOLE MOCLDY 84 59 42 S12 30.12R  
LUBBOCK PTCLDY 86 54 33 E7 30.08R  
PLAINVIEW CLEAR 82 56 40 E9 30.11R  
SNYDER PTCLDY 90 58 33 SE10 30.02R  

 
 
TXZ052-054-060>062-072-078-127-140-154-169-180300-  
PERMIAN BASIN/CONCHO VALLEY/BIG COUNTRY/EDWARDS PLATEAU  
 
CITY SKY/WX TMP DP RH WIND PRES REMARKS
 
ABILENE PTCLDY 91 61 36 NE6 29.97R  
BIG SPRING MOCLDY 84 62 46 N12 30.01R  
JUNCTION PTCLDY 91 63 39 S12 29.96R  
MIDLAND LGT RAIN 77 64 64 SW9 30.03R  
ODESSA LGT RAIN 78 64 61 NE21 30.06R  
SAN ANGELO PTCLDY 91 60 35 E7 29.95R  
SONORA PTCLDY 88 61 40 S12G17 30.03R  
SWEETWATER PTCLDY 85 60 42 SE3 30.04R  
WINK CLOUDY 82 67 60 S3 30.00S  

 
 
TXZ055-058-074-075-080-082-180300-  
FAR WEST/SOUTHWEST MOUNTAINS/TRANS PECOS  
 
CITY SKY/WX TMP DP RH WIND PRES REMARKS
 
ALPINE CLOUDY 75 62 62 E7 30.19S  
DRYDEN N/A 79 66 64 SE5 30.01R  
EL PASO CLOUDY 72 64 76 NW3 30.10R  
FORT STOCKTON MOCLDY 81 64 56 SE8 30.03R  
GUADALUPE PASS CLOUDY 68 64 87 NE21 30.21F  
MARFA CLOUDY 73 63 70 NE13 30.17S  
PECOS CLOUDY 82 69 64 W12 30.02S  
PRESIDIO CLOUDY 73 73 100 E3 30.01F  

 
 
TXZ014-016-019-021>030-083-180300  
TEXAS TECH WEST TEXAS MESONET/TEXAS PANHANDLE/NORTHERN SOUTH PLAINS  
 
CITY SKY/WX TMP DP RH WIND PRES REMARKS
 
ABERNATHY 5ENE N/A 83 57 40 E10 30.11R  
AMARILLO 9NNE N/A 73 62 66 NE14 30.18R  
AMARILLO 7SSE N/A 73 61 64 NE13 30.19R  
AMHERST 1NE N/A 81 54 39 E6 30.12S  
BOOTLEG 11WNW N/A 74 60 61 NE14 30.23R  
CANADIAN 6E N/A 70 65 84 NE3 30.11R  
CAPROCK CYN SP N/A 81 62 53 NE13 30.10R  
CHILDRESS 2NNE N/A 79 64 59 NE12 30.07R  
CLARENDON 2WSW N/A 76 61 60 NE14 30.12R  
CLAUDE 12SW N/A 74 61 65 NE15 30.16R  
DIMMITT 2NE N/A 79 59 49 NE13 30.16R  
FLOYDADA 2NNE N/A 82 59 46 NE17 30.12R  
FRIONA 2NE N/A 78 60 54 NE15 30.17R  
GOODLETT 3W N/A 80 64 57 NE17 30.04R  
HART 3N N/A 80 59 48 NE15 30.15R  
HEREFORD 2NW N/A 78 60 54 NE10 30.18R  
MCLEAN 1E N/A 71 62 73 N9 30.13R  
MEMPHIS 1NE N/A 78 63 58 N15 30.09R  
MULESHOE 2SSW N/A 84 53 34 E6 30.14R  
OLTON 6S N/A 82 56 41 E7 30.12R  
PALO DURO SP N/A 75 60 59 NE8 30.18R  
PAMPA 2E N/A 70 61 75 N6 30.17S  
PLAINVIEW 1S N/A 83 58 43 NE14 30.12R  
SILVERTON 7ESE N/A 78 61 56 NE17 30.13R  
TULIA 2ENE N/A 79 60 52 NE17 30.14R  
TURKEY 2WSW N/A 81 62 53 NE20 30.07R  
UMBARGER 3NNE N/A 76 61 60 E10 30.18R  

 
 
TXZ033>036-039>041-045>048-180300  
TEXAS TECH WEST TEXAS MESONET/SOUTH PLAINS  
 
CITY SKY/WX TMP DP RH WIND PRES REMARKS
 
AIKEN 3WSW N/A 81 61 50 E16 30.13R  
ANDREWS 2NE N/A 78 62 57 SE16 30.07R  
ANTON 6SSW N/A 85 56 37 E8 30.10R  
BROWNFIELD 2S N/A 86 56 36 E8 30.08R  
DENVR CTY 7WNW N/A 83 58 41 S8 30.10R  
GAIL 2ESE N/A 89 58 35 NE7 30.02R  
LAMESA 2SE N/A 88 58 36 E7 30.05S  
LUBBOCK 3WNW N/A 85 57 38 E8 30.09R  
MORTON 1ENE N/A 82 57 42 E8 30.12S  
ODONNELL 1N N/A 87 57 35 E7 30.07R  
PLAINS 3N N/A 85 55 36 E8 30.11R  
RALLS 1SE N/A 85 57 38 E10 30.09R  
REESE CENTER N/A 85 56 37 E9 30.09S  
SEAGRAVES 1SW N/A 87 58 36 E8 30.08R  
SEMINOLE 2NNE N/A 84 59 42 S8 30.08R  
SLATON 2NE N/A 85 56 37 E6 30.08S  
SNYDER 3E N/A 89 60 37 E9 30.02R  
SUNDOWN 8SW N/A 84 58 40 E7 30.10S  
TAHOKA 3NNE N/A 85 58 39 E9 30.07R  
WOLFFORTH 6SSW N/A 85 58 39 E9 30.09R  

 
 
TXZ031-032-036>038-042>044-180300-  
TEXAS TECH WEST TEXAS MESONET/ROLLING PLAINS  
 
CITY SKY/WX TMP DP RH WIND PRES REMARKS
 
ASPERMONT 3NE N/A 90 61 36 NE8 29.99R  
FLUVANNA 3WNW N/A 87 59 38 NE10 30.04R  
GRAHAM 5SSW N/A 88 58 36 E9 30.05R  
GUTHRIE 10WSW N/A 88 61 40 NE13 30.01S  
HASKELL 1NW N/A 89 63 40 NE12 29.98R  
JAYTON 1SSE N/A 89 59 36 E9 30.01R  
KNOX CITY 3NW N/A 89 63 40 NE17 29.99R  
LK A HENRY 1NW N/A 90 61 37 E8 30.02R  
NORTHFIELD 1S N/A 82 63 52 NE16 30.05R  
ODELL 4ENE N/A 80 66 62 NE15 30.04R  
PADUCAH 10SW N/A 86 62 43 E14 30.05R  
POST 1NE N/A 88 58 36 NE8 30.04R  
RRING SPRGS 3N N/A 85 59 41 NE9 30.07R  
SEYMOUR 3NW N/A 87 65 47 NE15 29.99R  
SPUR 1W N/A 89 58 35 E9 30.02R  
WEINERT 2NNE N/A 89 64 43 NE13 29.99S  
WHITE RVR 6NE N/A 87 57 36 NE8 30.05R  

 
 
TXZ052-054-060>062-072-078-127-140-154-169-180300-  
TEXAS TECH WEST TEXAS MESONET/PERMIAN BASIN/  
CONCHO VALLEY/BIG COUNTRY/EDWARDS PLATEAU  
 
CITY SKY/WX TMP DP RH WIND PRES REMARKS
 
COYANOSA 2N N/A 84 65 52 S8 30.02R  
JUNCTION 1SSW N/A 90 64 41 S13 29.97R  
MERTZON 3NNE N/A 89 62 39 E5 30.00R  
SAN ANGELO 7NW N/A 91 61 36 E5 29.97S  
STRLNG CT 4WSW N/A 89 61 38 SE7 30.01R  
ST LAWRNCE 5SW N/A 88 59 36 E12 30.02R  
SWEETWATR 11SW N/A 78 66 66 N10 30.04S  
WALL 1E N/A 90 62 38 E7 29.98R  

 
 
TXZ055-058-074-075-080-082-180300-  
TEXAS TECH WEST TEXAS MESONET/FAR WEST/SOUTHWEST MOUNTAINS/TRANS PECOS  
 
CITY SKY/WX TMP DP RH WIND PRES REMARKS
 
PRSMN GAP BBNP N/A 81 66 60 NE16 30.01S  
GUADLPE MTN NP N/A 67 63 89 N7 30.24S  

 
 
 
CLICK HERE TO GO TO PREVIOUS BULLETINS.

The Nexlab TX Page Main Text Page